This is the latest recevied weather packets stored in our database for station/object JA0BES-13. If no packets are shown the sender has not sent any weather packets the latest 10 day(s).
| Time | Temp. | Humidity | Pressure | Rain* | Wind** | Luminosity | Snow |
|---|---|---|---|---|---|---|---|
| 1788089253 | 25.56° C | 100% | 1010 hPa | 0 mm | - | - | - |
| 1788088650 | 26.11° C | 100% | 1009.8 hPa | 0 mm | - | - | - |
| 1788088050 | 26.11° C | 100% | 1009.7 hPa | 0 mm | - | - | - |
| 1788087450 | 26.11° C | 100% | 1009.4 hPa | 0 mm | - | - | - |
| 1788086849 | 26.11° C | 100% | 1009.2 hPa | 0 mm | - | - | - |
| 1788086249 | 26.11° C | 100% | 1009.2 hPa | 0 mm | - | - | - |
| 1788085649 | 26.11° C | 100% | 1008.8 hPa | 0 mm | - | - | - |
| 1788085048 | 26.11° C | 100% | 1008.6 hPa | 0 mm | - | - | - |
| 1788084448 | 26.67° C | 100% | 1008.7 hPa | 0 mm | - | - | - |
| 1788083848 | 26.67° C | 100% | 1008.5 hPa | 0 mm | - | - | - |
| 1788083247 | 26.67° C | 100% | 1008.5 hPa | 0 mm | - | - | - |
| 1788082647 | 27.22° C | 100% | 1008.2 hPa | 0 mm | - | - | - |
| 1788081446 | 27.22° C | 100% | 1008.4 hPa | 0 mm | - | - | - |
| 1788080846 | 27.78° C | 100% | 1008.4 hPa | 0 mm | - | - | - |
| 1788080246 | 27.78° C | 100% | 1008.1 hPa | 0 mm | - | - | - |
| 1788079645 | 27.78° C | 100% | 1007.9 hPa | 0 mm | - | - | - |
| 1788079045 | 27.78° C | 100% | 1008 hPa | 0 mm | - | - | - |
| 1788078444 | 28.33° C | 100% | 1007.9 hPa | 0 mm | - | - | - |
| 1788077844 | 28.33° C | 100% | 1007.9 hPa | 0 mm | - | - | - |
| 1788077244 | 28.33° C | 100% | 1007.7 hPa | 0 mm | - | - | - |
| 1788076644 | 28.33° C | 100% | 1008 hPa | 0 mm | - | - | - |
| 1788076043 | 28.33° C | 100% | 1007.5 hPa | 0 mm | - | - | - |
| 1788064036 | 25° C | 100% | 1007.6 hPa | 0 mm | - | - | - |
| 1788063436 | 24.44° C | 100% | 1007.8 hPa | 0 mm | - | - | - |
| 1788062835 | 24.44° C | 100% | 1007.8 hPa | 0 mm | - | - | - |
* Rain since midnight (hover to see other rain measurements)
** Current wind speed in m/s (hover to see current wind gust speed)